This is the latest recevied weather packets stored in our database for station/object XE2G-31. If no packets are shown the sender has not sent any weather packets the latest 10 day(s).
| Time | Temp. | Humidity | Pressure | Rain* | Wind** | Luminosity | Snow |
|---|---|---|---|---|---|---|---|
| 1777486823 | 33.33° C | 43% | 871 hPa | - | - | - | - |
| 1777485876 | 33.33° C | 34% | 871 hPa | - | - | - | - |
| 1777484929 | 33.33° C | 34% | 871 hPa | - | - | - | - |
| 1777483983 | 33.33° C | 16% | 871 hPa | - | - | - | - |
| 1777483036 | 32.78° C | 15% | 871 hPa | - | - | - | - |
| 1777482089 | 32.22° C | 16% | 871 hPa | - | - | - | - |
| 1777481142 | 31.67° C | 16% | 871 hPa | - | - | - | - |
| 1777480195 | 31.11° C | 21% | 871 hPa | - | - | - | - |
| 1777479248 | 28.89° C | 20% | 871 hPa | - | - | - | - |
| 1777478302 | 28.33° C | 22% | 871 hPa | - | - | - | - |
| 1777477355 | 27.78° C | 21% | 871 hPa | - | - | - | - |
| 1777476408 | 26.67° C | 25% | 871 hPa | - | - | - | - |
| 1777475461 | 26.11° C | 25% | 871 hPa | - | - | - | - |
| 1777474514 | 26.11° C | 26% | 870 hPa | - | - | - | - |
| 1777473567 | 25.56° C | 29% | 870 hPa | - | - | - | - |
| 1777472621 | 25° C | 32% | 870 hPa | - | - | - | - |
| 1777471674 | 25.56° C | 34% | 870 hPa | - | - | - | - |
| 1777470727 | 23.89° C | 39% | 870 hPa | - | - | - | - |
| 1777469780 | 23.33° C | 39% | 870 hPa | - | - | - | - |
| 1777468833 | 23.33° C | 44% | 870 hPa | - | - | - | - |
| 1777467886 | 23.33° C | 47% | 870 hPa | - | - | - | - |
| 1777466940 | 22.78° C | 49% | 870 hPa | - | - | - | - |
| 1777465993 | 22.78° C | 43% | 869 hPa | - | - | - | - |
| 1777465046 | 22.22° C | 50% | 869 hPa | - | - | - | - |
| 1777464099 | 21.11° C | 67% | 870 hPa | - | - | - | - |
* Rain since midnight (hover to see other rain measurements)
** Current wind speed in m/s (hover to see current wind gust speed)